Torna al catalogo

STARLINK-32960

AttivoComunicazioniVLEO
NORAD 63197·PAYLOAD·🇺🇸 United States

Lanciato Mar 13, 2025 da Cape Canaveral Space Force Station

Loading…

Prossimi Passaggi (prossime 24 ore)

TLE

AggiornatoSource: CelesTrak SupGP

Epoca: Sep 14, 2026, 22:18 UTC

1 63197C 25048Q   26257.92965278  .00009441  00000+0  34203-3 0  2574
2 63197  43.0030  96.7615 0001325 275.8766  26.1966 15.27564854    12

Traccia STARLINK-32960 in tempo reale con AllMySat

Download on the App Store